Regional Weather Roundup
Issued by NWS

Home | Current Version | Previous Version | Graphics & Text | Print | Product List | Glossary On
Versions: 1 2 3 4 5 6 7 8 9 10 11 12 13 14 15 16 17 18 19 20 21 22 23 24 25 26 27 28 29 30 31 32 33 34 35 36 37 38 39 40 41 42 43 44 45 46 47 48 49 50
000
ASUS43 KDTX 270810
RWRMI
MICHIGAN HOURLY REGIONAL WEATHER ROUNDUP
NATIONAL WEATHER SERVICE DETROIT/PONTIAC MI
400 AM EDT MON APR 27 2015

NOTE: "FAIR" INDICATES FEW OR NO CLOUDS BELOW 12,000 FEET WITH NO
SIGNIFICANT WEATHER AND/OR OBSTRUCTION TO VISIBILITY.

MIZ047>049-052>055-059>063-066>070-074>076-081>083-270900-
SOUTHEAST LOWER MICHIGAN

CITY           SKY/WX    TMP DP  RH WIND       PRES   REMARKS
ADRIAN         CLEAR     37  32  82 NW6       29.94F
ALMA           CLOUDY    42  34  72 NW8       29.96S
ANN ARBOR      CLOUDY    33  31  92 W3        29.93S
BAD AXE        LGT RAIN  37  35  91 N6G16     29.94R
DETROIT CITY   CLOUDY    42  31  64 NW6       29.92S
DETROIT        MOCLDY    42  32  67 W7        29.93S
FLINT          CLOUDY    44  34  67 NW8       29.94S
HILLSDALE      CLEAR     37  32  84 CALM      29.93S
HOWELL         CLOUDY    39  33  80 W7        29.93S

CITY           SKY/WX    TMP DP  RH WIND       PRES   REMARKS
JACKSON        MOCLDY    37  31  78 NW5       29.94F
LAMBERTVILLE   PTCLDY    39  34  81 CALM      29.93F
LANSING        CLOUDY    40  32  73 NW7       29.97S
LAPEER         NOT AVBL
MASON          CLOUDY    38  32  78 W5        29.95S
MONROE         PTCLDY    36  32  87 CALM      29.92R
PONTIAC        CLOUDY    41  32  70 NW8       29.90F
PORT HOPE        N/A     38  35  89 N8        29.92S
PORT HURON     LGT RAIN  41  36  81 N10       29.91R
TRI CITIES     CLOUDY    44  34  67 NW7       29.95S
YPSILANTI      CLOUDY    43  34  70 W7        29.93S
$$
MIZ043>046-050>051-056>058-064>065-071>073-077>080-270900-
SOUTHWEST LOWER MICHIGAN

CITY           SKY/WX    TMP DP  RH WIND       PRES   REMARKS
BATTLE CREEK   PTCLDY    39  30  70 N6        29.97S
BENTON HARBOR  CLEAR     38  35  89 NW5       30.01R
BIG RAPIDS     CLOUDY    40  31  70 NW6       29.98R
COLDWATER      CLEAR     38  30  71 N3        29.95S
HOLLAND        CLOUDY    43  31  62 NW7       30.01S
GRAND RAPIDS   CLOUDY    42  30  62 NW8       29.98F
KALAMAZOO      CLEAR     37  29  72 N7        29.97S
MARSHALL       MOCLDY    38  31  74 CALM      29.95S
MUSKEGON       CLOUDY    43  31  62 NW7       30.02S
$$
MIZ016>042-270900-
NORTHERN LOWER MICHIGAN

CITY           SKY/WX    TMP DP  RH WIND       PRES   REMARKS
ALPENA         CLOUDY    40  33  76 N10       29.98R
BEAVER ISLAND  CLOUDY    40  34  77 N3        30.05R
BELLAIRE       CLOUDY    41  34  75 N5        30.01S
CADILLAC       CLOUDY    38  32  78 NW10      29.98R
CHARLEVOIX     CLOUDY    38  34  87 N7        30.06R
FRANKFORT      CLOUDY    42  31  65 N8        30.04S
GAYLORD        CLOUDY    39  33  79 N6        29.98S
GRAYLING       CLOUDY    40  32  73 N9        29.98S
HARBOR SPRINGS CLOUDY    40  33  73 N3        30.02R
HOUGHTON LAKE  CLOUDY    41  32  70 N8        29.97S
MANISTEE       MOCLDY    37  30  75 SW5       30.03F
OSCODA         CLOUDY    41  35  79 N9        29.95R
PELLSTON       CLOUDY    41  33  73 N8        30.02S
TRAVERSE CITY  CLOUDY    41  34  76 N9        30.01S
$$
MIZ007>008-015-270900-
EASTERN UPPER MICHIGAN

CITY           SKY/WX    TMP DP  RH WIND       PRES   REMARKS
KINROSS        CLOUDY    37  36  93 NW9       30.01S
MACKINAC ISLAN CLOUDY    39  33  79 N9        30.01S
NEWBERRY       CLOUDY    38  33  81 N10       30.03F
S. S. MARIE    CLOUDY    41  32  70 N8        30.01R
$$
MIZ004>006-011>014-085-270900-
CENTRAL UPPER MICHIGAN

CITY           SKY/WX    TMP DP  RH WIND       PRES   REMARKS
MANISTIQUE     CLOUDY    39  34  81 N6        30.06R
ESCANABA       PTCLDY    41  27  56 NW5       30.08S
MENOMINEE      CLEAR     39  27  60 N7        30.08S
SAWYER-GWINN   CLEAR     37  28  72 N9        30.07F
$$
MIZ001>003-009>011-084-270900-
WESTERN UPPER MICHIGAN

CITY           SKY/WX    TMP DP  RH WIND       PRES   REMARKS
IRON MOUNTAIN  CLEAR     35  26  69 NW6       30.08F
HOUGHTON         N/A     34  28  79 NW8       30.12F
COPPER HARBOR    N/A     39  29  67 N8        30.13S
IRONWOOD       CLEAR     30  28  93 CALM      30.14F
$$

ABBREVIATIONS USED IN REMARKS
   TC - TEMPERATURE IN CELSIUS
  WCI - WIND CHILL INDEX
   HX - HEAT INDEX
  VSB - VISIBILITY




USA.gov is the U.S. government's official web portal to all federal, state and local government web resources and services.